This is the latest recevied weather packets stored in our database for station/object WE8L. If no packets are shown the sender has not sent any weather packets the latest 10 day(s).
| Time | Temp. | Humidity | Pressure | Rain* | Wind** | Luminosity | Snow |
|---|---|---|---|---|---|---|---|
| 1777825093 | 14.44° C | 39% | 1021.3 hPa | 0 mm | - | 172 W/m² | - |
| 1777824790 | 14.44° C | 40% | 1021.3 hPa | 0 mm | - | 239 W/m² | - |
| 1777824486 | 14.44° C | 44% | 1021.5 hPa | 0 mm | - | 409 W/m² | - |
| 1777824182 | 13.89° C | 51% | 1021.4 hPa | 0 mm | - | 141 W/m² | - |
| 1777823878 | 13.89° C | 50% | 1021.6 hPa | 0 mm | - | 63 W/m² | - |
| 1777823576 | 13.89° C | 47% | 1021.6 hPa | 0 mm | - | 69 W/m² | - |
| 1777823273 | 13.89° C | 46% | 1021.7 hPa | 0 mm | - | 150 W/m² | - |
| 1777822970 | 13.33° C | 48% | 1021.9 hPa | 0 mm | - | 59 W/m² | - |
| 1777822668 | 13.33° C | 50% | 1021.7 hPa | 0 mm | - | 119 W/m² | - |
| 1777822366 | 12.78° C | 50% | 1021.8 hPa | 0 mm | - | 53 W/m² | - |
| 1777822064 | 12.78° C | 51% | 1021.8 hPa | 0 mm | - | 42 W/m² | - |
| 1777821762 | 12.78° C | 54% | 1021.9 hPa | 0 mm | - | 42 W/m² | - |
| 1777821458 | 12.78° C | 51% | 1022.1 hPa | 0 mm | - | 42 W/m² | - |
| 1777821156 | 12.78° C | 52% | 1022 hPa | 0 mm | - | 52 W/m² | - |
| 1777820852 | 12.78° C | 56% | 1021.8 hPa | 0 mm | - | 93 W/m² | - |
| 1777820548 | 12.22° C | 51% | 1021.9 hPa | 0 mm | - | 42 W/m² | - |
| 1777820245 | 12.22° C | 51% | 1022 hPa | 0 mm | - | 467 W/m² | - |
| 1777819943 | 11.67° C | 52% | 1022 hPa | 0 mm | - | 554 W/m² | - |
| 1777819640 | 12.22° C | 49% | 1022.1 hPa | 0 mm | - | 541 W/m² | - |
| 1777819338 | 11.67° C | 50% | 1022 hPa | 0 mm | - | 528 W/m² | - |
| 1777819034 | 11.11° C | 51% | 1021.9 hPa | 0 mm | - | 517 W/m² | - |
| 1777818732 | 11.11° C | 50% | 1021.9 hPa | 0 mm | - | 335 W/m² | - |
| 1777818428 | 11.11° C | 50% | 1021.9 hPa | 0 mm | - | 114 W/m² | - |
| 1777818124 | 11.11° C | 51% | 1021.8 hPa | 0 mm | - | 206 W/m² | - |
| 1777817821 | 11.11° C | 50% | 1021.9 hPa | 0 mm | - | 93 W/m² | - |
* Rain latest hour (hover to see other rain measurements)
** Current wind speed in m/s (hover to see current wind gust speed)